Temperature
10 10 10 10 10 10 10 10 10 9 8 8 8 7 7 7 6 6 5 4 4 3 2 2 1 0 -0 -1 -2 -3 -4 -5 -6 -5 -6 -6 -6 -7 -6 -7 -7 -7 -7
10 9 9 9 9 9 9 9 8 8 7 7 7 7 6 6 5 5 4 3 3 2 2 1 0 -0 -1 -2 -3 -4 -5 -5 -6 -7 -7 -7 -7 -7 -7 -7 -7 -7 -7
8 8 8 8 8 9 8 8 7 7 7 7 6 6 5 5 4 4 3 2 2 1 1 0 -0 -1 -2 -3 -4 -5 -5 -6 -7 -8 -8 -8 -7 -7 -8 -7 -8 -8 -7
7 7 7 7 8 8 7 7 7 7 6 6 5 5 5 4 3 3 2 2 1 1 0 -0 -1 -2 -3 -4 -5 -6 -6 -7 -8 -8 -8 -8 -8 -8 -8 -8 -8 -8 -8
6 6 6 6 6 7 6 6 6 6 5 5 5 4 4 3 3 2 2 1 1 0 -0 -1 -2 -3 -4 -5 -6 -7 -7 -8 -8 -8 -8 -8 -8 -8 -8 -8 -9 -9 -8
4 4 5 5 6 6 6 6 6 5 5 4 4 3 3 2 2 1 1 1 0 -0 -1 -2 -3 -4 -5 -6 -7 -7 -8 -8 -8 -8 -8 -8 -8 -8 -9 -9 -9 -9 -9
3 3 4 5 5 5 5 5 5 4 4 4 3 3 2 2 1 1 0 -0 -1 -1 -2 -3 -4 -5 -6 -7 -7 -8 -8 -8 -9 -9 -9 -9 -9 -9 -9 -9 -9 -9 -9
2 3 4 5 5 5 5 4 4 4 3 3 2 2 1 1 0 -0 -1 -1 -2 -2 -3 -4 -5 -6 -7 -7 -8 -8 -8 -8 -8 -9 -9 -9 -9 -9 -9 -8 -8 -9 -8
2 3 4 4 5 4 4 4 3 3 2 2 1 1 0 0 -0 -1 -2 -2 -3 -3 -4 -5 -6 -7 -7 -8 -8 -8 -8 -8 -8 -8 -8 -8 -8 -8 -8 -9 -9 -9 -9
2 3 4 4 4 4 3 3 2 2 1 1 1 0 -0 -1 -2 -2 -3 -3 -4 -4 -5 -5 -6 -7 -8 -8 -9 -9 -9 -8 -8 -8 -8 -7 -7 -7 -7 -8 -9 -10 -10
2 3 3 3 3 3 3 2 2 1 1 0 -0 -1 -1 -2 -3 -3 -4 -5 -6 -7 -7 -7 -7 -8 -8 -8 -9 -9 -9 -9 -9 -9 -8 -7 -7 -7 -7 -8 -8 -10 -10
3 3 3 3 3 2 2 1 1 0 0 -0 -1 -2 -2 -3 -4 -5 -6 -7 -7 -8 -8 -7 -8 -8 -9 -9 -8 -9 -9 -9 -9 -8 -8 -8 -8 -8 -7 -7 -7 -8 -8
3 3 3 2 2 1 1 1 0 -0 -1 -1 -2 -2 -3 -4 -5 -6 -6 -6 -7 -8 -8 -8 -8 -8 -8 -8 -8 -9 -9 -9 -8 -9 -8 -8 -8 -8 -8 -7 -7 -7 -7
3 2 2 2 1 1 0 -0 -0 -1 -2 -2 -3 -3 -4 -4 -5 -6 -6 -7 -7 -7 -8 -8 -8 -8 -8 -8 -8 -8 -8 -8 -9 -9 -8 -8 -8 -8 -8 -8 -8 -8 -8
3 2 1 1 0 -0 -1 -1 -1 -2 -2 -3 -4 -4 -5 -5 -6 -7 -8 -8 -8 -9 -9 -9 -8 -8 -8 -8 -8 -8 -8 -8 -8 -8 -8 -8 -8 -8 -8 -8 -8 -9 -10
2 1 1 0 -0 -1 -1 -2 -2 -3 -3 -4 -5 -5 -6 -7 -7 -8 -8 -8 -8 -9 -9 -9 -9 -9 -9 -8 -8 -8 -8 -8 -8 -8 -8 -8 -8 -8 -8 -8 -8 -9 -10
1 1 0 -0 -1 -1 -2 -2 -3 -3 -4 -5 -5 -6 -7 -7 -8 -8 -8 -9 -8 -9 -9 -9 -9 -9 -9 -8 -8 -8 -8 -8 -8 -8 -8 -8 -8 -8 -8 -8 -9 -9 -9
0 -0 -1 -1 -1 -2 -3 -3 -4 -4 -5 -5 -6 -7 -8 -8 -8 -8 -9 -9 -8 -9 -9 -9 -9 -9 -9 -8 -8 -8 -8 -8 -8 -8 -8 -8 -8 -8 -8 -8 -9 -9 -9
-0 -1 -1 -2 -2 -3 -3 -4 -4 -5 -6 -6 -7 -7 -8 -8 -8 -8 -9 -9 -9 -9 -9 -9 -9 -9 -8 -8 -8 -8 -8 -8 -8 -8 -8 -8 -8 -8 -8 -8 -9 -9 -9
-1 -1 -2 -2 -3 -3 -4 -4 -5 -6 -6 -7 -7 -8 -8 -8 -8 -9 -9 -9 -9 -9 -9 -9 -9 -8 -8 -8 -8 -8 -8 -7 -7 -8 -8 -8 -8 -8 -8 -8 -8 -8 -8
-2 -2 -3 -3 -3 -4 -5 -5 -6 -6 -7 -7 -8 -8 -9 -9 -9 -9 -9 -9 -10 -9 -9 -9 -8 -8 -8 -8 -8 -8 -7 -7 -7 -8 -8 -8 -8 -8 -8 -8 -8 -8 -8
-2 -3 -3 -4 -4 -5 -5 -6 -7 -7 -8 -8 -8 -9 -9 -9 -10 -10 -10 -10 -9 -9 -9 -9 -8 -8 -8 -8 -8 -7 -7 -7 -7 -7 -7 -7 -7 -8 -8 -8 -8 -8 -8
-3 -3 -4 -4 -5 -5 -6 -7 -7 -8 -8 -9 -9 -9 -9 -10 -10 -10 -10 -10 -9 -9 -9 -9 -8 -8 -8 -7 -7 -7 -7 -7 -7 -7 -7 -7 -7 -8 -8 -8 -8 -8 -8
-3 -4 -4 -5 -6 -6 -7 -7 -8 -8 -9 -9 -9 -10 -10 -10 -10 -10 -10 -9 -9 -9 -8 -8 -8 -8 -7 -7 -7 -7 -7 -7 -7 -7 -7 -7 -7 -7 -8 -8 -8 -8 -8
-4 -4 -5 -6 -6 -7 -7 -8 -8 -9 -9 -9 -10 -10 -10 -10 -10 -10 -10 -9 -9 -8 -8 -8 -8 -7 -7 -7 -7 -7 -7 -7 -7 -7 -7 -7 -7 -7 -7 -8 -8 -8 -7
-5 -5 -6 -6 -7 -7 -8 -8 -8 -9 -9 -10 -10 -10 -10 -10 -10 -10 -9 -9 -9 -8 -8 -8 -7 -7 -7 -7 -7 -7 -7 -7 -6 -6 -6 -7 -7 -7 -7 -7 -7 -7 -7
Wind_Speed
14 14 15 14 14 15 14 15 16 15 14 13 12 10 9 7 6 4 3 3 2 3 3 3 4 3 3 3 3 4 5 6 13 11 6 7 9 11 14 19 22 21 22
15 16 15 15 15 15 16 15 15 15 13 12 11 10 8 7 5 3 2 2 2 3 4 3 4 3 4 4 4 5 5 6 10 15 9 7 10 11 12 12 15 19 18
16 16 16 15 15 16 17 16 15 14 13 11 10 9 8 6 4 2 1 1 3 4 4 4 5 4 5 5 5 5 6 8 7 11 13 9 9 11 12 13 13 10 17
16 16 16 15 16 17 16 15 14 13 12 10 9 8 7 5 3 2 2 3 4 5 5 5 5 5 6 5 6 7 7 8 8 10 12 11 11 10 10 10 12 8 11
15 15 15 15 16 16 16 15 14 13 12 10 9 8 6 4 3 4 4 4 5 6 6 6 5 8 10 10 8 7 7 7 8 10 13 13 12 10 10 9 14 12 11
14 14 15 17 17 16 15 15 14 12 10 9 8 6 5 4 4 3 4 4 6 7 7 6 7 8 12 15 17 17 16 12 11 11 13 14 15 12 10 11 13 16 16
14 16 16 17 17 16 16 14 13 10 9 8 6 5 4 5 3 2 5 5 6 7 7 7 7 8 12 7 13 17 16 21 22 16 16 15 15 13 12 14 14 16 18
15 16 16 17 17 15 14 13 10 8 7 6 5 4 3 3 3 2 7 6 7 7 7 7 7 7 9 12 9 8 9 12 17 14 13 14 14 12 13 16 16 15 14
15 15 15 16 16 15 13 11 9 7 7 5 4 3 1 1 1 3 7 4 6 7 8 8 9 8 16 20 12 10 12 12 19 23 24 24 28 28 22 13 11 13 16
14 15 14 14 14 13 12 10 7 7 6 4 3 1 0 1 1 4 7 3 5 6 7 8 14 16 19 21 13 12 15 14 13 14 16 19 16 18 22 12 9 12 14
15 15 14 13 12 12 10 8 7 6 4 2 1 1 1 1 2 6 9 4 5 6 6 7 8 19 22 24 22 13 17 18 12 11 12 12 11 10 9 9 8 10 14
15 15 13 12 10 10 9 7 6 5 3 1 1 2 2 2 3 7 10 12 12 7 7 7 10 21 24 25 19 19 23 19 9 9 11 11 11 11 11 12 13 12 13
15 14 12 11 9 8 8 7 4 3 3 2 2 2 3 3 5 10 12 15 17 10 9 16 20 24 22 15 17 21 17 9 9 10 11 11 9 10 11 12 13 12 14
14 12 10 10 8 7 6 4 4 3 3 3 3 3 4 4 4 4 5 8 12 11 10 15 20 21 17 16 15 12 8 9 10 10 11 11 10 10 11 11 12 12 12
13 11 9 8 7 6 5 4 5 4 3 2 2 2 4 4 8 14 11 8 8 10 12 7 7 8 7 8 9 8 8 9 10 10 11 12 12 12 12 10 10 12 13
11 9 7 6 5 5 4 3 4 2 2 1 2 4 4 8 14 16 17 18 19 19 12 7 8 8 9 10 11 12 11 11 10 11 11 11 12 12 13 12 11 12 13
10 8 6 5 5 4 4 3 2 2 2 4 5 7 8 12 14 16 16 17 17 15 7 7 8 9 9 10 10 11 12 12 11 11 12 12 12 12 12 13 12 12 13
9 8 7 5 5 5 4 3 2 2 3 4 5 9 11 13 15 15 15 12 9 9 6 7 8 9 10 10 11 11 12 12 11 11 12 12 12 12 12 13 12 13 14
8 6 6 5 5 4 3 3 2 3 3 4 4 6 10 13 14 14 13 5 7 8 7 8 8 9 10 10 11 11 12 12 13 12 12 13 12 12 12 13 13 18 16
7 10 7 5 4 3 3 3 3 3 3 4 4 5 6 7 6 8 7 6 6 7 8 9 10 10 11 10 11 11 12 12 13 12 12 12 12 12 13 15 14 13 13
6 6 7 5 4 3 3 3 3 3 3 4 5 7 12 6 6 7 7 7 7 8 9 10 10 11 10 10 10 11 13 13 12 12 12 12 12 12 12 12 13 13 12
5 4 4 4 3 3 2 2 2 3 4 5 5 7 13 6 6 6 7 8 8 8 8 9 10 10 10 10 11 12 13 13 13 13 13 13 13 13 12 11 12 12 12
5 5 4 3 2 2 3 2 3 3 4 5 6 6 7 6 6 7 8 8 8 9 8 9 10 11 10 11 11 11 13 13 13 14 14 13 12 11 11 11 13 13 12
5 4 3 2 2 2 2 3 3 4 4 5 5 6 6 6 7 8 9 9 9 9 10 10 11 14 17 15 14 15 15 16 15 13 14 12 12 11 11 11 11 12 12
4 4 3 2 2 2 2 3 4 4 5 6 6 6 7 7 8 8 8 9 10 11 12 13 12 13 16 19 19 18 22 25 21 15 10 9 10 11 10 10 10 11 11
4 3 2 2 2 2 2 3 4 5 5 6 6 6 7 7 8 8 9 9 10 11 12 12 14 18 21 19 20 23 26 24 22 20 11 8 9 9 10 8 10 10 10
Wind_Direction
133 130 131 132 136 137 137 136 136 134 134 133 131 130 130 132 137 142 155 157 208 259 258 247 259 266 268 270 270 268 265 268 283 290 283 294 298 295 297 295 295 293 293
128 128 129 132 135 135 133 133 133 132 131 129 128 127 127 126 127 134 153 172 235 260 272 277 279 284 282 277 273 271 274 275 285 296 299 297 293 293 293 291 299 299 297
125 128 131 135 136 133 132 131 129 126 122 119 117 117 117 114 109 92 68 321 291 280 274 270 271 278 279 277 282 284 284 291 287 296 300 298 294 294 294 294 293 292 297
126 132 136 136 134 130 127 125 122 119 117 113 109 108 110 112 108 73 20 329 307 298 288 277 269 264 265 271 282 277 281 284 287 292 296 297 294 290 290 298 300 289 294
128 132 133 130 126 122 120 118 116 114 112 109 108 109 113 119 97 59 8 334 324 313 304 294 287 288 291 291 288 279 285 285 289 293 295 297 297 299 298 298 301 301 292
128 129 127 125 122 119 117 114 111 108 108 108 113 121 126 114 97 42 346 328 318 309 302 299 298 295 297 301 304 304 302 301 301 296 297 296 297 295 295 297 300 301 300
127 127 125 122 119 117 116 113 113 112 113 114 116 118 116 122 112 9 332 325 305 295 294 295 299 300 307 294 294 299 299 299 298 296 294 293 293 292 292 293 292 290 292
126 124 122 120 118 115 113 112 112 114 117 117 115 111 113 145 136 350 333 330 306 300 300 298 296 294 298 301 291 292 284 291 291 292 285 285 289 289 284 288 290 290 287
124 122 120 119 118 116 115 113 113 114 111 109 107 104 92 137 156 340 336 320 306 307 309 314 316 303 305 310 313 303 297 294 299 298 297 298 299 300 301 300 297 298 297
119 116 115 115 116 114 113 110 107 107 107 110 117 135 167 235 288 325 329 310 309 309 308 308 312 311 310 314 312 303 303 302 299 299 299 299 295 294 299 296 294 297 297
116 112 109 107 108 109 108 107 107 106 108 116 137 252 270 267 319 320 323 317 294 296 301 302 302 311 311 311 311 304 300 304 301 300 299 297 296 294 294 291 289 291 292
110 106 104 103 106 110 109 105 103 103 97 83 52 359 347 355 333 318 322 325 324 314 307 301 304 311 312 313 313 307 308 312 305 300 297 297 299 299 300 298 294 288 279
109 106 105 102 99 102 105 105 100 89 73 50 31 360 341 347 337 338 336 330 325 322 309 312 314 315 316 313 310 313 318 312 302 298 298 297 294 293 298 299 297 291 284
110 108 106 105 100 90 84 85 88 77 59 35 18 1 346 341 337 339 326 317 317 314 306 309 315 314 314 315 316 316 310 301 305 300 301 299 299 299 300 300 302 305 301
109 107 104 101 103 96 83 71 79 83 89 63 21 0 344 325 320 326 326 317 314 308 314 309 309 312 316 318 315 311 309 310 309 304 302 303 303 302 301 300 298 301 298
112 108 105 103 99 99 98 81 78 105 92 14 325 322 318 318 323 327 325 323 323 322 324 317 314 316 316 316 316 316 314 312 309 307 304 301 301 302 302 302 299 298 298
112 110 104 100 96 89 78 73 38 348 308 305 310 320 324 328 330 328 326 328 329 333 332 316 312 312 311 311 310 309 309 308 307 304 301 301 300 300 299 300 301 299 298
100 98 96 90 86 80 73 59 43 15 349 336 333 333 336 337 335 333 335 337 330 329 314 309 309 309 309 308 308 307 306 307 306 304 302 300 299 298 298 298 299 298 300
95 91 88 88 84 80 68 47 26 11 352 333 331 337 341 338 337 337 342 332 315 315 313 310 308 307 306 305 305 304 303 302 302 303 301 299 298 298 297 297 299 300 302
91 98 95 90 82 71 55 39 23 4 345 334 328 320 321 329 328 328 328 315 311 311 312 310 308 305 305 304 304 303 303 302 302 301 299 299 298 297 297 299 300 302 302
97 94 92 84 75 64 48 30 9 351 335 324 315 319 332 334 321 315 316 315 313 311 311 309 306 305 304 302 302 301 300 300 300 299 299 300 301 302 301 299 300 301 303
99 94 86 84 72 57 33 10 352 338 325 318 315 322 332 331 314 312 311 310 307 303 303 304 303 301 300 300 301 301 299 298 298 299 300 301 301 300 301 303 306 309 311
93 91 85 77 63 23 10 357 344 329 318 313 314 318 322 319 315 312 309 308 308 307 307 305 304 302 301 300 297 294 293 293 295 296 299 302 304 306 309 312 314 318 322
88 87 83 70 45 18 358 343 331 321 316 312 311 313 312 310 309 309 309 309 310 309 309 308 303 301 302 305 305 301 296 296 297 298 298 304 311 314 316 318 320 322 323
83 79 69 54 25 359 343 330 322 318 317 315 312 311 310 310 309 309 310 310 310 310 309 310 306 306 306 307 307 307 309 315 319 322 314 316 316 316 318 320 324 326 326
82 71 56 32 3 342 328 319 314 313 309 307 307 305 306 307 307 308 310 311 314 313 312 311 307 308 309 310 310 314 320 326 331 334 334 321 322 323 327 327 327 330 330
Height
1413 1418 1423 1427 1432 1437 1442 1448 1454 1460 1466 1471 1475 1479 1482 1485 1486 1487 1487 1486 1486 1485 1483 1481 1480 1478 1475 1473 1470 1468 1465 1462 1454 1447 1446 1443 1439 1435 1431 1427 1422 1417 1413
1409 1414 1420 1425 1430 1435 1440 1446 1453 1459 1465 1470 1474 1477 1480 1482 1484 1484 1484 1483 1482 1481 1479 1477 1475 1473 1470 1468 1465 1462 1459 1456 1451 1442 1438 1436 1432 1428 1423 1419 1415 1411 1406
1407 1412 1418 1423 1428 1433 1439 1446 1453 1459 1464 1469 1473 1476 1478 1480 1481 1481 1481 1480 1479 1477 1475 1473 1470 1468 1465 1462 1459 1456 1453 1449 1445 1439 1432 1429 1425 1421 1417 1412 1408 1403 1399
1406 1412 1417 1422 1427 1433 1440 1447 1453 1459 1464 1468 1472 1475 1477 1478 1478 1478 1478 1476 1475 1473 1471 1468 1465 1462 1459 1456 1453 1450 1446 1443 1439 1434 1427 1422 1418 1415 1411 1405 1398 1394 1389
1407 1412 1416 1422 1428 1434 1441 1448 1454 1459 1464 1468 1471 1473 1475 1475 1476 1475 1474 1472 1470 1468 1466 1463 1460 1457 1454 1451 1448 1445 1442 1437 1433 1428 1422 1417 1412 1408 1405 1399 1393 1386 1380
1408 1412 1417 1422 1429 1435 1442 1449 1454 1459 1464 1467 1470 1471 1472 1473 1473 1471 1470 1468 1466 1463 1461 1458 1455 1452 1449 1446 1443 1440 1437 1433 1428 1423 1417 1412 1406 1403 1398 1393 1387 1380 1371
1409 1413 1418 1424 1430 1437 1444 1450 1455 1460 1464 1466 1468 1469 1470 1470 1469 1468 1466 1464 1461 1459 1455 1452 1449 1446 1443 1439 1436 1433 1430 1427 1424 1419 1412 1406 1401 1396 1392 1386 1381 1375 1367
1411 1415 1421 1427 1433 1440 1446 1452 1456 1460 1463 1465 1467 1467 1468 1467 1466 1464 1462 1459 1457 1454 1451 1447 1444 1440 1437 1434 1430 1426 1423 1419 1416 1411 1406 1400 1396 1391 1386 1381 1375 1368 1360
1414 1419 1424 1431 1436 1442 1448 1453 1457 1460 1462 1464 1465 1465 1465 1464 1462 1460 1457 1454 1451 1449 1446 1442 1439 1435 1432 1429 1425 1419 1414 1410 1407 1403 1399 1394 1389 1384 1380 1375 1368 1362 1353
1418 1422 1429 1435 1440 1445 1450 1454 1457 1460 1462 1463 1463 1463 1462 1461 1459 1456 1453 1450 1446 1443 1440 1437 1434 1430 1427 1423 1419 1414 1408 1403 1399 1394 1390 1386 1381 1377 1373 1369 1363 1356 1348
1422 1427 1433 1439 1444 1448 1451 1455 1457 1459 1461 1461 1461 1460 1459 1457 1455 1453 1449 1446 1442 1438 1435 1431 1428 1424 1421 1418 1414 1409 1403 1399 1394 1388 1383 1378 1374 1369 1365 1361 1356 1351 1343
1427 1432 1437 1442 1446 1450 1452 1455 1457 1458 1459 1459 1458 1458 1456 1454 1452 1449 1446 1443 1439 1435 1430 1426 1422 1419 1416 1412 1408 1403 1399 1394 1389 1383 1378 1372 1367 1362 1357 1353 1348 1343 1337
1431 1436 1441 1445 1448 1451 1453 1455 1456 1457 1457 1457 1456 1455 1453 1451 1448 1445 1442 1438 1434 1430 1426 1422 1418 1414 1410 1406 1402 1398 1394 1389 1383 1378 1372 1367 1362 1356 1350 1345 1339 1333 1328
1435 1439 1443 1446 1449 1452 1454 1455 1455 1456 1455 1454 1453 1451 1449 1447 1444 1440 1437 1433 1429 1425 1421 1417 1413 1409 1405 1401 1397 1393 1388 1384 1379 1373 1367 1361 1356 1350 1344 1338 1331 1325 1318
1439 1442 1445 1448 1450 1452 1453 1454 1454 1454 1454 1452 1450 1448 1445 1443 1440 1437 1433 1429 1425 1421 1417 1413 1409 1404 1400 1396 1392 1388 1383 1379 1373 1368 1362 1356 1350 1344 1338 1333 1327 1320 1313
1441 1444 1447 1449 1451 1452 1453 1453 1453 1453 1451 1449 1447 1445 1442 1440 1436 1433 1430 1426 1422 1418 1414 1409 1405 1401 1396 1392 1387 1382 1378 1374 1368 1363 1357 1352 1345 1339 1333 1327 1322 1316 1309
1443 1446 1448 1449 1451 1452 1452 1452 1451 1450 1449 1447 1445 1442 1440 1436 1433 1429 1426 1422 1419 1415 1411 1406 1402 1398 1393 1389 1384 1379 1374 1370 1365 1359 1353 1347 1341 1335 1329 1322 1317 1311 1304
1445 1447 1449 1450 1451 1451 1451 1450 1449 1447 1446 1444 1442 1439 1436 1433 1430 1426 1422 1419 1415 1411 1408 1403 1399 1395 1391 1386 1381 1376 1371 1366 1361 1355 1349 1344 1338 1331 1325 1319 1313 1307 1300
1446 1448 1449 1450 1450 1450 1449 1448 1447 1445 1443 1441 1439 1436 1433 1430 1427 1423 1419 1416 1411 1408 1404 1401 1397 1393 1388 1384 1379 1374 1368 1363 1357 1352 1346 1340 1334 1328 1321 1315 1309 1303 1297
1447 1448 1449 1449 1449 1448 1447 1446 1444 1443 1441 1438 1435 1433 1429 1426 1423 1420 1416 1413 1409 1406 1402 1398 1394 1390 1385 1381 1376 1371 1365 1360 1354 1348 1342 1336 1330 1324 1318 1312 1306 1300 1294
1447 1448 1448 1448 1447 1446 1445 1444 1442 1440 1438 1435 1433 1430 1427 1424 1420 1417 1413 1410 1407 1403 1399 1395 1391 1387 1383 1378 1373 1368 1362 1357 1351 1345 1339 1333 1327 1321 1315 1309 1303 1297 1291
1447 1447 1447 1446 1445 1444 1443 1441 1440 1437 1435 1433 1430 1427 1424 1421 1418 1414 1411 1408 1404 1401 1397 1393 1389 1385 1380 1376 1370 1365 1359 1354 1348 1342 1336 1330 1324 1318 1313 1307 1301 1295 1289
1446 1446 1445 1445 1444 1442 1441 1439 1437 1435 1433 1430 1427 1424 1421 1418 1415 1412 1409 1405 1402 1398 1395 1391 1387 1382 1378 1374 1369 1363 1357 1351 1346 1340 1334 1327 1322 1316 1311 1305 1300 1294 1288
1445 1445 1444 1443 1442 1440 1439 1437 1435 1432 1430 1427 1425 1422 1419 1416 1413 1410 1406 1403 1400 1396 1393 1389 1384 1380 1376 1372 1367 1362 1356 1351 1345 1339 1333 1327 1321 1315 1310 1304 1299 1293 1287
1444 1443 1442 1441 1440 1438 1436 1434 1432 1430 1427 1425 1422 1419 1416 1414 1410 1407 1404 1401 1397 1394 1390 1387 1383 1378 1374 1369 1365 1360 1355 1350 1344 1338 1333 1327 1321 1315 1309 1304 1298 1293 1287
1442 1442 1441 1439 1438 1436 1434 1432 1430 1427 1425 1422 1420 1417 1414 1411 1408 1405 1402 1399 1395 1392 1388 1385 1381 1377 1372 1368 1363 1358 1353 1348 1343 1337 1332 1326 1320 1315 1309 1304 1299 1293 1288